Precipitable_Water
1.93 1.96 1.85 1.58 0.96 0.93 0.72 0.71 0.85 0.80 0.80 0.97 0.98 0.87 0.75 0.81 0.63 0.50 1.15 1.53 1.78 1.84 1.87 1.84 1.83 1.78 1.83 1.91 1.95 1.94 1.94 1.94 1.87 1.80 1.73 1.70 1.75 1.73 1.68 1.52 1.56 1.71 1.81 1.94 2.03 2.01 2.02 2.04 2.04
1.91 1.82 1.69 1.26 0.91 0.71 0.68 0.84 0.76 0.83 0.91 1.02 0.99 0.93 0.84 0.85 1.02 1.00 1.23 1.55 1.69 1.74 1.79 1.83 1.83 1.78 1.83 1.87 1.83 1.83 1.88 1.86 1.87 1.83 1.72 1.68 1.69 1.69 1.63 1.56 1.55 1.65 1.84 2.01 2.10 2.02 2.03 1.95 2.00
1.76 1.81 1.27 0.91 0.81 0.69 0.71 0.81 0.82 0.93 0.95 0.92 0.92 1.04 1.01 0.94 1.09 1.20 1.40 1.56 1.65 1.66 1.75 1.85 1.82 1.80 1.80 1.81 1.81 1.81 1.80 1.82 1.80 1.83 1.76 1.65 1.68 1.67 1.59 1.57 1.67 1.83 1.82 1.97 2.10 2.14 2.11 1.98 1.95
1.46 1.38 1.13 0.83 0.74 0.78 0.82 0.87 0.89 0.88 0.96 0.99 0.98 0.96 1.19 1.37 1.15 1.36 1.52 1.63 1.55 1.59 1.74 1.90 1.79 1.79 1.81 1.81 1.71 1.73 1.76 1.80 1.81 1.80 1.76 1.70 1.66 1.61 1.58 1.69 1.73 1.78 1.84 1.90 2.07 2.08 2.16 2.11 2.03
1.26 1.11 0.80 0.75 0.71 0.77 0.83 0.88 0.90 0.87 0.91 0.93 0.97 0.95 1.10 1.42 1.54 1.47 1.56 1.61 1.59 1.58 1.77 1.93 1.76 1.78 1.74 1.70 1.71 1.74 1.72 1.77 1.79 1.81 1.79 1.70 1.59 1.62 1.67 1.70 1.77 1.81 1.89 1.94 2.05 2.09 2.04 2.10 2.08
0.91 0.88 0.67 0.67 0.65 0.75 0.79 0.86 0.86 0.91 0.94 0.95 0.95 1.01 1.18 1.55 1.52 1.51 1.63 1.67 1.68 1.61 1.73 1.86 1.89 1.88 1.82 1.83 1.75 1.77 1.77 1.73 1.71 1.72 1.77 1.72 1.66 1.71 1.70 1.76 1.75 1.82 1.91 1.93 2.04 2.02 1.96 2.03 2.08
0.76 0.74 0.63 0.65 0.66 0.71 0.73 0.81 0.79 0.87 0.93 0.97 1.07 0.97 1.25 1.43 1.55 1.57 1.61 1.77 1.77 1.69 1.67 1.96 1.93 1.85 1.91 1.88 1.91 1.92 1.86 1.82 1.80 1.85 1.86 1.88 1.82 1.78 1.77 1.76 1.75 1.80 1.90 1.96 2.03 1.97 1.96 1.88 2.09
0.86 0.80 0.64 0.68 0.66 0.64 0.74 0.75 0.85 0.88 0.94 1.15 1.14 1.00 1.10 1.45 1.60 1.58 1.54 1.69 1.74 1.70 1.68 1.70 1.85 1.91 1.84 1.92 1.95 1.99 1.96 1.99 1.96 1.87 1.84 1.90 1.93 1.96 1.92 1.76 1.79 1.80 1.89 1.93 1.96 2.00 1.86 1.82 1.93
0.91 0.68 0.62 0.67 0.66 0.69 0.77 0.73 0.85 1.01 0.99 1.07 1.14 1.19 1.32 1.53 1.59 1.40 1.37 1.51 1.57 1.62 1.64 1.61 1.73 1.81 1.92 2.04 1.96 1.97 2.07 2.18 2.17 2.18 2.04 1.83 1.99 2.00 2.01 1.84 1.88 1.82 1.88 1.88 1.89 1.93 1.95 1.83 1.86
0.70 0.62 0.67 0.74 0.76 0.69 0.70 0.68 0.80 0.88 0.93 0.98 1.13 1.34 1.46 1.48 1.45 1.19 1.19 1.22 1.31 1.42 1.56 1.63 1.70 1.74 1.76 1.85 1.92 1.98 1.96 2.07 2.14 2.04 1.79 2.04 2.07 2.09 2.00 1.94 1.87 1.85 1.89 1.93 1.90 1.89 1.90 1.78 1.86
0.68 0.64 0.74 0.74 0.74 0.72 0.68 0.69 0.79 0.83 0.89 1.02 1.04 1.22 1.32 1.35 1.35 1.18 1.20 1.29 1.32 1.41 1.46 1.53 1.60 1.69 1.71 1.66 1.75 1.85 1.85 1.92 1.97 1.86 1.77 1.87 2.08 2.10 1.99 1.99 1.85 1.92 1.93 1.92 1.91 1.91 1.83 1.81 1.91
0.60 0.71 0.78 0.74 0.76 0.70 0.64 0.67 0.68 0.80 0.85 1.01 1.16 1.28 1.29 1.27 1.22 1.15 1.17 1.24 1.24 1.22 1.26 1.31 1.35 1.39 1.43 1.49 1.45 1.55 1.60 1.59 1.69 1.70 1.71 1.98 2.01 1.91 1.86 1.98 1.92 1.93 1.99 1.92 1.88 1.85 1.87 1.90 1.88
0.63 0.69 0.74 0.74 0.72 0.68 0.66 0.63 0.68 0.78 0.90 1.01 1.19 1.27 1.25 1.29 1.20 1.21 1.25 1.30 1.33 1.33 1.38 1.40 1.41 1.42 1.38 1.35 1.34 1.34 1.38 1.39 1.50 1.63 1.64 1.91 1.87 1.85 1.80 1.91 2.00 1.96 2.08 1.95 1.85 1.86 1.80 1.84 1.92
0.75 0.65 0.63 0.69 0.65 0.64 0.61 0.64 0.73 0.87 0.93 1.05 1.15 1.21 1.22 1.29 1.18 1.20 1.25 1.26 1.37 1.49 1.52 1.58 1.58 1.54 1.45 1.43 1.43 1.38 1.40 1.47 1.49 1.54 1.59 1.74 1.74 1.74 1.80 1.79 1.97 1.93 2.07 2.08 1.94 1.86 1.73 1.74 1.85
0.64 0.53 0.60 0.64 0.59 0.58 0.64 0.61 0.71 0.90 1.00 1.03 1.11 1.20 1.18 1.28 1.26 1.19 1.26 1.31 1.43 1.48 1.54 1.59 1.66 1.68 1.62 1.48 1.40 1.42 1.38 1.43 1.43 1.50 1.52 1.57 1.68 1.73 1.71 1.75 1.83 1.92 2.00 2.04 1.98 1.87 1.78 1.68 1.81
0.49 0.53 0.46 0.59 0.54 0.59 0.59 0.53 0.71 0.91 0.96 1.00 1.09 1.14 1.16 1.27 1.33 1.29 1.37 1.43 1.51 1.55 1.58 1.65 1.71 1.73 1.67 1.60 1.51 1.41 1.35 1.35 1.39 1.47 1.54 1.55 1.67 1.78 1.64 1.80 1.73 1.85 2.00 1.99 1.98 1.88 1.78 1.73 1.75
0.56 0.47 0.45 0.48 0.53 0.50 0.52 0.53 0.72 0.92 0.97 1.00 1.06 1.10 1.18 1.25 1.34 1.38 1.47 1.49 1.57 1.66 1.69 1.62 1.58 1.54 1.57 1.61 1.62 1.57 1.49 1.33 1.32 1.43 1.48 1.54 1.65 1.72 1.70 1.71 1.83 1.87 1.94 2.01 1.97 1.87 1.76 1.75 1.79
0.42 0.47 0.43 0.44 0.49 0.51 0.56 0.58 0.66 0.81 0.88 0.92 1.02 1.10 1.13 1.25 1.33 1.43 1.51 1.57 1.63 1.67 1.65 1.53 1.53 1.57 1.61 1.67 1.70 1.69 1.68 1.56 1.43 1.37 1.41 1.51 1.58 1.70 1.79 1.75 1.82 1.86 1.92 1.91 1.94 1.82 1.80 1.81 1.85
0.53 0.49 0.42 0.49 0.50 0.47 0.55 0.59 0.61 0.67 0.77 0.83 0.93 1.03 1.13 1.20 1.42 1.51 1.58 1.61 1.64 1.67 1.58 1.54 1.50 1.74 1.67 1.57 1.55 1.57 1.64 1.75 1.71 1.55 1.44 1.49 1.58 1.63 1.77 1.82 1.90 1.92 1.82 1.88 1.93 1.89 1.81 1.76 1.90
0.45 0.42 0.42 0.49 0.50 0.42 0.44 0.46 0.59 0.64 0.68 0.80 0.89 0.95 1.05 1.16 1.28 1.43 1.55 1.61 1.61 1.63 1.65 1.55 1.61 1.62 1.62 1.55 1.61 1.68 1.78 1.85 1.87 1.82 1.58 1.51 1.57 1.66 1.67 1.81 1.93 1.95 1.89 1.94 1.92 1.87 1.80 1.86 1.88
0.38 0.37 0.40 0.44 0.43 0.42 0.47 0.43 0.52 0.57 0.64 0.76 0.84 0.93 0.97 1.03 1.13 1.32 1.45 1.50 1.59 1.61 1.61 1.53 1.56 1.58 1.54 1.61 1.66 1.78 1.91 1.84 1.81 1.79 1.73 1.69 1.65 1.70 1.68 1.76 1.92 2.00 1.92 1.91 1.90 1.87 1.81 1.77 1.78
0.32 0.40 0.41 0.43 0.34 0.31 0.44 0.29 0.49 0.48 0.54 0.62 0.69 0.82 0.90 0.99 1.13 1.30 1.46 1.46 1.51 1.53 1.55 1.54 1.50 1.49 1.56 1.57 1.71 1.75 1.65 1.62 1.69 1.74 1.66 1.74 1.72 1.71 1.71 1.81 1.84 1.97 1.94 1.89 1.94 1.90 1.90 1.88 1.63
0.35 0.39 0.32 0.34 0.32 0.33 0.40 0.32 0.35 0.50 0.45 0.54 0.66 0.82 0.92 1.11 1.24 1.31 1.39 1.42 1.45 1.41 1.45 1.51 1.46 1.38 1.50 1.60 1.79 1.71 1.65 1.69 1.72 1.75 1.66 1.67 1.75 1.72 1.75 1.82 1.79 1.90 1.97 1.92 1.97 1.86 1.97 1.91 1.67
0.39 0.28 0.33 0.38 0.35 0.30 0.41 0.34 0.31 0.42 0.49 0.58 0.75 0.85 1.03 1.13 1.22 1.37 1.43 1.45 1.36 1.39 1.40 1.40 1.33 1.39 1.46 1.60 1.73 1.77 1.71 1.68 1.62 1.61 1.62 1.65 1.66 1.76 1.82 1.72 1.73 1.86 1.95 1.96 1.97 1.96 1.96 1.87 1.69
0.30 0.26 0.26 0.27 0.30 0.28 0.49 0.35 0.35 0.50 0.58 0.66 0.74 0.89 1.05 1.10 1.27 1.38 1.36 1.27 1.26 1.29 1.32 1.32 1.28 1.30 1.45 1.54 1.75 1.76 1.75 1.69 1.64 1.67 1.72 1.60 1.62 1.76 1.80 1.78 1.78 1.82 1.94 1.94 1.95 1.94 1.95 1.90 1.79
0.24 0.27 0.26 0.25 0.26 0.30 0.47 0.30 0.43 0.56 0.66 0.75 0.85 0.90 1.07 1.17 1.33 1.41 1.34 1.25 1.28 1.33 1.37 1.33 1.33 1.31 1.42 1.49 1.60 1.75 1.79 1.72 1.77 1.81 1.74 1.66 1.69 1.75 1.83 1.86 1.90 1.89 1.86 1.84 1.88 1.89 1.87 1.85 1.83
0.31 0.27 0.35 0.32 0.33 0.26 0.29 0.41 0.51 0.62 0.64 0.77 0.78 0.86 1.03 1.20 1.35 1.41 1.35 1.29 1.29 1.37 1.41 1.42 1.39 1.33 1.38 1.41 1.48 1.70 1.77 1.76 1.81 1.86 1.82 1.83 1.83 1.85 1.90 1.89 1.79 1.75 1.77 1.80 1.81 1.84 1.82 1.77 1.70
0.35 0.38 0.30 0.31 0.24 0.28 0.33 0.35 0.41 0.54 0.62 0.73 0.78 0.84 1.07 1.29 1.40 1.44 1.32 1.30 1.37 1.41 1.50 1.50 1.49 1.39 1.36 1.39 1.47 1.55 1.76 1.79 1.84 1.85 1.84 1.85 1.85 1.87 1.86 1.90 1.87 1.85 1.86 1.86 1.88 1.83 1.83 1.76 1.74
0.28 0.29 0.31 0.37 0.40 0.30 0.31 0.41 0.61 0.56 0.65 0.70 0.88 0.94 1.12 1.28 1.39 1.48 1.38 1.39 1.43 1.43 1.48 1.56 1.48 1.42 1.39 1.43 1.44 1.49 1.58 1.79 1.79 1.83 1.82 1.81 1.82 1.78 1.82 1.85 1.86 1.85 1.91 1.95 1.88 1.84 1.80 1.75 1.69
0.34 0.28 0.33 0.30 0.36 0.37 0.37 0.38 0.66 0.66 0.70 0.80 0.93 1.01 1.17 1.36 1.42 1.51 1.46 1.44 1.40 1.40 1.46 1.49 1.52 1.45 1.44 1.47 1.43 1.38 1.47 1.63 1.71 1.74 1.79 1.78 1.77 1.79 1.80 1.80 1.79 1.82 1.83 1.86 1.84 1.80 1.79 1.69 1.61
Wind_Speed
5 6 6 4 4 4 8 7 6 9 10 10 10 11 12 10 9 6 1 4 8 11 12 13 13 13 13 12 11 10 10 10 10 11 11 11 10 9 8 8 8 8 7 7 7 8 9 10 9
4 4 3 3 2 4 6 5 6 7 9 9 10 9 10 11 11 7 4 5 9 10 12 13 13 13 13 11 11 10 10 10 10 10 11 11 11 10 9 8 8 8 8 7 7 8 9 9 10
2 1 1 0 1 5 4 5 4 5 6 8 9 11 11 10 9 6 3 6 8 10 12 12 13 13 12 12 11 10 10 10 10 11 11 12 11 11 10 9 8 8 8 8 8 8 9 9 10
1 1 1 1 5 4 4 2 3 3 5 6 9 10 10 11 7 7 2 4 8 10 11 11 12 12 11 11 11 11 11 10 10 11 11 12 12 12 11 10 8 8 8 8 8 8 8 9 9
1 1 1 2 3 2 2 3 1 2 6 4 7 9 9 9 9 5 1 4 8 10 10 11 11 11 11 11 10 11 11 11 11 11 11 12 12 12 12 10 9 9 9 9 9 9 8 8 9
0 0 2 2 3 2 2 3 3 4 5 6 6 7 9 8 8 5 1 3 7 10 9 10 11 11 11 11 11 11 12 12 13 12 12 12 12 13 12 11 10 10 10 10 9 9 8 8 9
2 1 2 2 3 4 4 4 3 5 4 5 6 7 8 7 7 4 2 2 6 8 9 9 10 11 11 12 12 12 13 13 13 13 13 13 13 14 13 13 11 11 11 11 10 9 9 8 9
2 1 2 1 1 5 5 4 5 5 4 5 6 6 7 6 4 3 3 1 5 8 9 9 10 11 12 13 13 13 13 13 13 14 14 15 15 15 14 14 13 12 12 11 11 10 9 9 9
3 3 1 1 2 4 6 7 5 4 3 5 6 7 7 4 3 3 2 0 3 7 9 10 11 12 13 14 14 14 15 15 15 11 14 17 17 17 15 16 15 13 12 12 11 10 10 9 9
5 4 1 2 3 6 7 8 6 4 4 4 5 6 4 3 3 2 1 1 3 5 7 9 11 12 13 14 14 15 16 16 15 14 14 21 19 19 17 17 16 15 14 13 12 11 10 9 9
4 3 2 3 4 6 8 8 6 7 6 7 6 4 3 3 2 2 2 2 2 4 6 8 10 11 13 13 14 15 15 16 17 17 12 17 23 21 19 18 18 17 16 15 13 12 11 9 9
6 6 5 6 8 9 10 9 8 8 10 9 6 4 3 3 2 2 2 2 2 3 4 5 7 9 11 13 14 15 16 18 17 16 13 14 14 24 21 20 19 19 18 16 14 12 11 10 9
10 8 8 7 10 10 10 10 10 10 8 6 4 4 4 3 2 2 2 2 1 2 3 4 6 8 10 12 14 16 16 17 18 18 16 16 14 20 23 22 20 20 19 18 16 13 12 10 9
5 9 11 11 9 8 9 11 8 7 7 5 4 4 4 3 2 2 2 2 3 3 4 5 6 7 9 11 13 15 16 17 18 18 17 18 17 18 22 25 23 22 21 19 17 15 13 11 10
10 11 10 9 8 7 10 11 7 4 4 4 4 4 4 4 3 3 3 3 4 4 5 6 7 8 9 10 12 14 15 16 17 19 19 19 19 20 20 26 26 24 23 22 19 17 15 12 11
10 10 10 4 7 6 8 7 3 3 3 4 4 4 4 5 5 4 4 5 5 5 7 8 8 9 11 12 13 14 16 17 19 20 20 21 21 21 21 24 27 26 25 23 21 19 16 14 13
10 10 7 6 6 9 7 9 4 5 5 5 6 5 6 7 7 6 6 6 6 7 8 9 9 10 11 12 14 16 17 19 20 21 22 23 23 24 24 24 26 28 26 24 23 20 18 16 14
11 10 8 8 7 10 9 9 9 7 7 7 7 7 8 9 9 8 7 7 7 8 9 9 10 11 12 14 16 17 20 22 23 24 24 25 26 26 26 26 26 30 27 27 25 22 20 17 15
11 12 12 10 9 10 9 9 6 7 8 9 9 9 9 10 10 9 8 8 9 9 10 10 11 12 15 17 18 20 20 20 22 25 27 27 27 28 27 27 28 29 29 28 25 23 21 18 16
14 14 14 12 8 11 12 12 9 9 10 10 10 10 10 10 10 9 9 9 10 11 11 11 12 14 16 18 19 19 19 18 17 19 24 28 28 29 29 29 29 31 29 28 26 23 21 19 17
16 15 14 13 13 13 13 13 8 9 10 10 11 11 12 12 11 9 9 9 10 11 11 12 13 15 17 19 20 20 19 18 17 17 19 23 27 28 30 30 30 31 31 29 27 25 23 19 17
16 14 14 16 13 10 9 9 8 10 11 12 12 12 11 10 9 8 8 8 9 9 10 12 13 16 17 19 20 18 17 17 18 18 17 19 22 25 28 30 31 31 31 30 28 25 23 21 17
16 12 12 12 13 12 10 10 10 9 12 10 10 9 8 7 5 6 7 7 8 7 9 11 13 15 17 18 16 14 13 13 15 15 15 18 20 22 26 29 31 31 30 29 28 26 23 21 18
12 12 12 12 13 13 8 10 11 8 7 7 5 6 6 5 4 5 5 5 5 7 9 11 13 15 16 17 16 13 8 5 7 10 13 15 17 20 22 26 30 30 31 29 28 26 23 21 18
17 15 12 12 11 11 5 9 12 7 6 7 7 7 6 6 5 4 4 4 4 6 8 10 13 14 14 16 15 8 5 4 5 6 10 12 15 17 19 24 27 29 29 28 27 25 23 21 19
19 18 14 9 12 9 6 10 7 7 9 7 7 7 6 7 6 5 3 3 3 5 8 10 12 14 14 14 14 11 4 3 1 6 9 10 13 15 17 20 23 26 27 27 27 25 22 19 19
14 19 17 14 11 12 12 9 10 7 5 5 5 6 6 6 6 5 3 3 3 6 8 9 10 12 13 13 13 12 7 4 2 6 8 9 11 14 16 16 20 22 25 26 26 24 23 20 19
14 16 13 13 15 11 9 9 9 5 6 6 5 5 5 5 6 5 4 3 6 7 8 8 9 9 11 12 12 13 9 4 5 6 9 10 10 13 14 15 16 19 21 22 23 24 21 19 18
15 16 15 11 9 11 11 7 3 5 6 6 4 4 5 6 7 6 5 5 6 7 8 9 6 7 8 10 11 12 11 7 6 6 8 9 9 10 11 14 15 16 18 19 22 22 21 19 17
20 19 19 15 14 13 12 9 5 6 7 7 5 5 5 6 8 6 6 6 6 8 8 7 6 5 6 8 10 10 8 6 6 6 7 6 6 7 10 12 12 15 16 18 19 21 19 18 17
Wind_Direction
86 77 96 84 78 80 78 71 52 54 45 35 39 31 36 27 14 8 17 162 168 174 175 177 177 179 180 183 185 185 183 185 184 187 186 183 179 173 167 162 160 160 157 155 155 156 157 156 154
96 79 103 85 47 104 70 52 63 40 41 39 36 31 27 31 26 40 99 157 166 170 175 178 179 181 182 185 188 189 194 194 194 190 190 189 185 181 177 169 167 167 164 160 157 157 158 161 158
97 91 133 359 15 58 73 53 60 51 44 28 27 23 18 22 25 40 68 151 165 169 173 177 180 183 187 190 194 197 196 195 197 195 195 193 191 188 184 178 175 172 169 164 159 160 159 162 163
63 113 147 250 75 61 35 54 41 64 17 12 22 25 23 17 13 10 92 156 171 173 176 179 182 186 189 193 198 201 201 201 198 193 193 193 196 190 188 185 181 179 175 171 164 162 160 163 165
345 150 209 168 89 56 15 10 313 332 11 9 359 12 8 7 7 11 49 179 183 183 184 188 192 195 197 199 203 205 206 205 201 199 197 197 199 195 191 190 188 187 181 175 171 166 164 165 166
197 30 216 189 86 38 359 322 313 304 341 354 346 2 4 2 6 11 359 201 191 192 196 197 201 203 206 207 210 210 211 210 207 206 204 201 200 196 196 197 196 193 186 181 177 174 169 166 167
271 301 24 83 94 44 12 342 310 325 323 337 349 351 358 356 359 6 3 217 197 198 203 205 206 210 212 216 216 215 215 213 211 211 212 210 207 203 203 202 201 196 190 187 183 178 175 171 171
255 251 149 122 68 36 20 358 331 309 326 348 338 342 346 353 4 12 1 245 203 208 213 218 218 218 223 222 223 220 218 216 215 216 220 219 217 210 210 205 202 196 191 189 185 181 180 179 177
228 225 194 67 329 342 0 347 340 317 305 322 341 344 349 357 6 4 8 278 215 219 223 228 230 229 231 229 228 226 224 224 219 213 231 225 220 213 213 207 202 200 196 192 190 185 183 181 181
223 248 332 297 318 317 321 329 322 294 305 310 330 347 359 348 336 335 314 299 234 228 228 234 234 235 235 233 234 233 234 235 235 234 284 228 221 216 212 209 205 202 198 193 189 187 186 186 186
210 257 297 280 309 309 309 309 298 288 292 293 283 312 328 316 320 312 294 296 274 240 242 241 241 239 239 239 239 238 238 238 240 250 291 224 225 218 213 210 206 203 199 194 191 188 190 191 192
239 249 279 292 302 298 300 301 296 286 294 308 292 272 292 311 295 303 288 302 298 241 239 243 243 242 242 243 243 244 245 245 245 246 264 227 233 218 216 211 207 203 200 198 195 194 192 194 197
240 263 280 290 301 301 293 288 293 293 290 294 285 256 272 298 294 298 293 307 304 269 256 259 252 251 250 250 250 249 249 247 246 245 244 239 238 221 215 214 210 206 203 201 200 199 197 197 197
251 268 280 285 305 297 296 301 293 299 281 266 262 255 257 268 270 286 277 286 283 281 269 273 267 264 261 260 257 255 253 251 247 242 241 238 239 224 220 215 212 210 206 204 203 203 202 204 205
260 273 278 275 294 305 308 278 296 304 254 252 250 259 256 248 260 268 273 290 291 288 284 283 277 272 272 269 264 260 257 252 248 244 241 238 235 228 225 218 215 214 211 209 207 207 208 211 212
259 267 272 263 287 291 311 297 328 283 260 244 244 268 246 241 257 272 283 283 288 292 290 287 283 279 275 275 272 267 263 258 252 247 242 238 232 229 224 216 217 218 215 214 211 209 211 214 216
244 259 265 270 282 304 303 302 307 272 267 253 254 272 254 252 261 270 280 291 292 293 297 289 285 283 281 280 276 273 269 263 256 250 244 238 233 230 226 223 219 216 216 214 213 213 215 216 219
254 250 251 268 289 302 295 286 273 265 266 256 263 275 265 260 262 266 270 283 297 302 301 299 291 290 289 288 282 279 277 269 259 251 244 237 233 231 227 225 222 215 215 214 215 216 217 218 221
263 262 263 269 287 292 287 289 283 273 265 262 265 269 269 268 263 264 269 277 294 300 301 299 296 293 294 293 285 283 282 270 262 252 243 237 233 229 227 223 217 211 213 213 214 215 216 218 220
251 257 256 271 264 290 289 283 273 277 272 268 264 268 273 269 264 264 270 276 289 297 298 300 300 302 300 298 292 288 283 272 265 258 241 234 232 230 226 221 216 213 213 213 213 214 216 219 223
248 254 250 262 286 280 285 267 256 273 276 273 269 273 279 272 267 257 271 275 288 296 299 305 306 309 308 306 300 292 282 269 261 258 241 234 230 226 222 218 215 213 212 212 213 215 217 220 225
251 248 255 262 271 273 284 274 263 279 279 270 270 271 274 272 263 257 266 281 293 298 305 312 316 316 317 315 308 295 284 268 259 253 241 229 222 220 217 215 213 211 210 211 212 215 217 220 224
250 257 251 258 264 276 247 272 282 281 285 274 264 264 275 281 255 249 261 286 294 307 315 320 325 326 326 328 326 311 297 269 258 239 233 222 219 217 214 212 210 209 208 210 211 213 216 218 224
237 243 250 258 258 255 251 278 283 301 292 283 259 263 272 255 253 255 272 283 291 314 324 328 335 338 337 338 331 320 308 286 249 235 223 213 211 209 209 208 207 207 208 210 211 212 213 217 223
237 233 241 245 238 253 262 274 275 289 283 268 262 263 273 249 243 236 285 262 295 318 335 338 343 348 348 348 353 344 336 307 271 231 202 201 201 203 204 204 203 205 206 208 208 209 212 216 223
224 228 240 243 245 250 257 276 289 291 279 253 255 271 265 239 236 242 244 266 312 331 339 345 351 354 357 1 7 360 0 356 43 182 182 187 191 192 192 194 197 201 203 204 206 209 214 222 224
223 230 237 256 255 269 271 276 277 277 242 239 257 267 254 234 220 230 251 288 318 329 334 339 350 358 5 10 13 17 19 21 141 145 157 160 174 179 183 187 192 195 199 203 208 212 216 223 228
234 223 220 237 258 261 252 276 272 252 234 242 261 260 239 221 214 226 246 277 310 314 323 329 345 356 8 12 14 19 20 73 100 133 141 145 148 166 178 180 183 192 196 200 205 207 214 223 226
218 225 230 255 252 273 272 266 264 239 238 239 258 266 246 228 225 235 254 282 309 314 316 312 318 346 2 12 17 22 33 84 105 118 140 145 147 166 173 183 187 191 195 200 206 211 216 222 227
224 225 228 242 240 246 269 278 257 252 247 247 244 272 262 235 228 242 259 279 300 308 309 308 303 319 350 12 20 24 40 78 82 107 144 164 182 183 187 190 190 197 204 205 206 210 216 223 230